Location: Brompton
(51.4000°N, 0.5333°E)
Time: 11:56:08
(UTC+00:00)

Cosmos 1898 Rocket - Pass Details

Date: 30 September 2021
Orbit: 752 x 784 km, 74.0° (Epoch: 17 October)

Event Time Altitude Azimuth Distance (km) Brightness Sun altitude
Rises 19:56:06 0° 203° (SSW) 3,206 6.7 -21.9°
Reaches altitude 10° 19:58:26 10° 203° (SSW) 2,289 5.9 -22.3°
Maximum altitude 20:03:39 89° 295° (WNW) 774 3.4 -23.0°
Drops below altitude 10° 20:08:57 10° 25° (NNE) 2,327 6.0 -23.8°
Sets 20:11:21 0° 25° (NNE) 3,263 6.8 -24.1°
